Regional Weather Roundup
Issued by NWS Cleveland, OH

Home | Current Version | Previous Version | Graphics & Text | Print | Product List | Glossary On
Versions: 1 2 3 4 5 6 7 8 9 10 11 12 13 14 15 16 17 18 19 20 21 22 23 24 25 26 27 28 29 30 31 32 33 34 35 36 37 38 39 40 41 42 43 44 45 46 47 48 49 50
000
ASUS41 KCLE 170110
RWRCLE
OHIO REGIONAL WEATHER ROUNDUP
NATIONAL WEATHER SERVICE WILMINGTON, OH
900 PM EDT WED AUG 16 2017

NOTE: "FAIR" INDICATES FEW OR NO CLOUDS BELOW 12,000 FEET WITH NO
SIGNIFICANT WEATHER AND/OR OBSTRUCTIONS TO VISIBILITY.

OHZ001>008-015>018-024>027-034-035-043-044-170200-
   NORTHWEST OHIO

CITY           SKY/WX    TMP DP  RH WIND       PRES   REMARKS
DEFIANCE       FAIR      77  66  68 E6        29.97R
FINDLAY        FAIR      79  65  62 E9        29.98R
TOLEDO EXPRESS FAIR      74  63  68 E7        29.99R
TOLEDO EXEC    FAIR      73  63  70 E6        30.00S
LIMA           FAIR      75  70  84 E5        29.98S
$$

OHZ009>014-019>023-028>033-038-089-170200-
   NORTHEAST OHIO

CITY           SKY/WX    TMP DP  RH WIND       PRES   REMARKS
CLE-HOPKINS    FAIR      80  56  43 E7        30.04R
CLE-LAKEFRONT  FAIR      77  55  46 E7        30.01R
CUY CO. ARPT   NOT AVBL
LORAIN-ELYRIA  FAIR      70  54  56 E6        30.02S
ASHTABULA      FAIR      64  60  87 CALM      30.05S
AKRON-CANTON   FAIR      77  61  57 E6        30.04R
WOOSTER        FAIR      74  64  71 E5        30.04R
MANSFIELD      FAIR      74  66  76 SE6       30.03R
YOUNGSTOWN     FAIR      71  59  65 E5        30.05S
$$

OHZ042-051>053-060>062-070>072-077>081-170200-
  SOUTHWEST OHIO

CITY           SKY/WX    TMP DP  RH WIND       PRES   REMARKS
CINC-COVINGTON FAIR      80  74  81 S6        29.97F
CINC-LUNKEN    FAIR      78  75  90 S3        29.96F
HAMILTON       MOCLDY    80  72  76 E3        29.97S
DAYTON         MOCLDY    80  68  66 SE6       29.99S
WRIGHT-PAT AFB PTCLDY    81  70  71 E3        29.97F
DAYTON GENERAL CLOUDY    78  69  73 S10       29.99R
WILMINGTON     FAIR      79  72  79 SE5       30.00R
$$

OHZ036-037-039>041-045>050-054>059-063>069-073>076-082>088-170200-
  CENTRAL AND SOUTHEAST OHIO

CITY           SKY/WX    TMP DP  RH WIND       PRES   REMARKS
COLUMBUS       FAIR      81  72  74 E6        29.99R
OSU AIRPORT    FAIR      79  69  71 CALM      30.00R
BOLTON FIELD   FAIR      75  72  89 SW8       30.00S
RICKENBACK AFB FAIR      79  71  74 SE5       29.99R
NEWARK         MOCLDY    76  70  82 CALM      30.00S
MARION         FAIR      78  67  68 SE7       30.01R
LANCASTER      FAIR      77  72  84 E5        30.01R
ZANESVILLE     MOCLDY    76  68  76 SE6       30.02R
NEW PHILLY     CLOUDY    75  70  84 CALM      30.03R
$$




USA.gov is the U.S. government's official web portal to all federal, state and local government web resources and services.